Regional Weather Roundup
Issued by NWS Jackson, KY

Home | Current Version | Previous Version | Graphics & Text | Print | Product List | Glossary On
Versions: 1 2 3 4 5 6 7 8 9 10 11 12 13 14 15 16 17 18 19 20 21 22 23 24 25 26 27
000
ASUS43 KJKL 221110
RWRJKL

EAST KENTUCKY HOURLY WEATHER ROUNDUP
NATIONAL WEATHER SERVICE JACKSON KY
700 AM EDT TUE AUG 22 2017

NOTE: "FAIR" INDICATES FEW OR NO CLOUDS BELOW 12,000 FEET WITH
NO SIGNIFICANT WEATHER AND/OR OBSTRUCTIONS TO VISIBILITY.

* THESE REPORTS ARE NOT UNDER NWS QUALITY CONTROL AND MAY NOT
  REPORT WEATHER SUCH AS PRECIPITATION AND FOG.

KYZ079-080-083-085-087-088-110-112-115-119-120-221200
...EASTERN KENTUCKY...

CITY           SKY/WX    TMP DP  RH WIND       PRES   REMARKS
JACKSON        CLEAR     70  67  90 CALM      30.10S
LONDON         CLEAR     68  65  90 CALM      30.10S
SOMERSET*      CLEAR     70  68  94 CALM      30.10R
MONTICELLO*    CLEAR     66  65  96 W12       30.10S
WILLIAMSBURG*  SUNNY     66  66 100 CALM      30.11S
MIDDLESBORO*   FOG       65  65 100 CALM      30.14S VSB 1/4
HARLAN APT*    CLOUDY    66  64  94 CALM      30.15S VSB 1/2
PIKE CO APT*     N/A     70  70 100 CALM      30.11F
BIG SANDY APT* SUNNY     72  70  93 S3        30.09F
MOREHEAD APT*  MOSUNNY   72  68  88 S6        30.07S
$$

KYZ035-036-041-042-044-050-067-078-099-221200
...CENTRAL KENTUCKY...

CITY           SKY/WX    TMP DP  RH WIND       PRES   REMARKS
MT STERLING*   CLEAR     72  68  88 SW5       30.07S
FLEMING/MASON* CLEAR     71  68  91 S7        30.05S
DANVILLE*      CLEAR     70  68  94 SW3       30.07S
LEXINGTON      CLEAR     73  67  81 S8        30.05S
FRANKFORT      CLEAR     73  66  78 S7        30.02S
LOUISVILLE     MOCLDY    79  69  71 S8        30.00S
LEBANON*         N/A     73  68  83 S8        30.05R
GLASGOW*       PTCLDY    73  67  83 S3        30.05R
BOWLING GREEN  PTCLDY    76  70  82 S3        30.04R
$$

KYZ091>093-OHZ055-061-077-WVZ005-015-034-035-042-221200
...SOUTHERN OHIO/WEST VIRGINIA...

CITY           SKY/WX    TMP DP  RH WIND       PRES   REMARKS
COVINGTON      MOCLDY    74  70  87 S8        29.99S
COLUMBUS       MOCLDY    75  69  81 S9        29.98S
DAYTON         MOCLDY    74  67  78 S12       29.97F
WILMINGTON     PTCLDY    70  69  97 S8        29.99F
HUNTINGTON     CLEAR     72  69  90 S7        30.04F
CHARLESTON     PTCLDY    67  65  93 CALM      30.07S
PINEVILLE*     CLOUDY    65  64  97 MISG      30.20S FOG
BECKLEY        CLOUDY    66  62  87 S5        30.18R
BLUEFIELD      CLOUDY    67  61  81 W6        30.22R
LOGAN CO APT*    N/A     70  68  94 CALM      30.12S
$$

VAZ002-007-008-TNZ017-027-036-066-071-221200
...SOUTHWEST VIRGINIA/EAST TENNESSEE...

CITY           SKY/WX    TMP DP  RH WIND       PRES   REMARKS
WISE*          CLEAR     68  68 100 SW5       30.22R
JONESVILLE*    FOG       64  64 100 CALM      30.17R VSB 1/4
ABINGDON*      CLEAR     68  68 100 E3        30.19R FOG
BRISTOL        PTCLDY    67  66  97 CALM      30.16R
MORRISTOWN*    MOSUNNY   70  68  94 CALM      30.13R
SEVIERVILLE*   SUNNY     66  64  94 CALM      30.12S
KNOXVILLE      MOCLDY    71  69  93 CALM      30.11R
LAFOLLETTE*      N/A     66  66 100 CALM      30.16S FOG
OAK RIDGE      MOCLDY    71  69  93 CALM      30.13R
CROSSVILLE     CLEAR     66  65  96 CALM      30.16S
NASHVILLE      PTCLDY    74  69  85 S6        30.06R
$$

...KEY TO REMARKS...
VSB - VISIBILITY IN MILES
WCI - WIND CHILL INDEX
HX  - HEAT INDEX

$$




USA.gov is the U.S. government's official web portal to all federal, state and local government web resources and services.